Location: Monrovia
(34.7865°N, 86.7139°W)
Time: 23:19:20
(UTC+00:00)

Cosmos 2233 Rocket - Pass Details

Date: 14 July 2020
Orbit: 954 x 990 km, 82.9° (Epoch: 12 August)

Event Time Altitude Azimuth Distance (km) Brightness Sun altitude
Exits shadow 07:53:28 55° 156° (SSE) 1,146 4.1 -26.8°
Maximum altitude 07:54:47 73° 94° (E) 1,013 4.0 -26.6°
Drops below altitude 10° 08:01:00 10° 11° (N) 2,728 7.2 -25.9°
Sets 08:03:32 0° 9° (N) 3,684 8.1 -25.7°
